Year,Month,Day,Hour,Minute,Value (Times are PST for temperature in C)
2017,03,20,00,00,2.50
2017,03,20,00,01,2.50
2017,03,20,00,02,2.50
2017,03,20,00,03,2.40
2017,03,20,00,04,2.40
2017,03,20,00,05,2.30
2017,03,20,00,06,2.30
2017,03,20,00,07,2.30
2017,03,20,00,08,2.30
2017,03,20,00,09,2.30
2017,03,20,00,10,2.20
2017,03,20,00,11,2.20
2017,03,20,00,12,2.20
2017,03,20,00,13,2.10
2017,03,20,00,14,2.10
2017,03,20,00,15,2.10
2017,03,20,00,16,2.10
2017,03,20,00,17,2.00
2017,03,20,00,18,2.00
2017,03,20,00,19,1.90
2017,03,20,00,20,1.90
2017,03,20,00,21,1.80
2017,03,20,00,22,1.80
2017,03,20,00,23,1.70
2017,03,20,00,24,1.70
2017,03,20,00,25,1.70
2017,03,20,00,26,1.70
2017,03,20,00,27,1.70
2017,03,20,00,28,1.70
2017,03,20,00,29,1.70
2017,03,20,00,30,1.70
2017,03,20,00,31,1.70
2017,03,20,00,32,1.70
2017,03,20,00,33,1.70
2017,03,20,00,34,1.70
2017,03,20,00,35,1.70
2017,03,20,00,36,1.60
2017,03,20,00,37,1.60
2017,03,20,00,38,1.60
2017,03,20,00,39,1.60
2017,03,20,00,40,1.60
2017,03,20,00,41,1.60
2017,03,20,00,42,1.60
2017,03,20,00,43,1.50
2017,03,20,00,44,1.50
2017,03,20,00,45,1.50
2017,03,20,00,46,1.40
2017,03,20,00,47,1.40
2017,03,20,00,48,1.40
2017,03,20,00,49,1.40
2017,03,20,00,50,1.30
2017,03,20,00,51,1.30
2017,03,20,00,52,1.30
2017,03,20,00,53,1.30
2017,03,20,00,54,1.20
2017,03,20,00,55,1.20
2017,03,20,00,56,1.20
2017,03,20,00,57,1.20
2017,03,20,00,58,1.20
2017,03,20,00,59,1.20
2017,03,20,01,00,1.20
2017,03,20,01,01,1.20
2017,03,20,01,02,1.20
2017,03,20,01,03,1.20
2017,03,20,01,04,1.10
2017,03,20,01,05,1.10
2017,03,20,01,06,1.10
2017,03,20,01,07,1.10
2017,03,20,01,08,1.10
2017,03,20,01,09,1.00
2017,03,20,01,10,1.00
2017,03,20,01,11,0.90
2017,03,20,01,12,0.80
2017,03,20,01,13,0.80
2017,03,20,01,14,0.80
2017,03,20,01,15,0.80
2017,03,20,01,16,0.70
2017,03,20,01,17,0.70
2017,03,20,01,18,0.70
2017,03,20,01,19,0.80
2017,03,20,01,20,0.70
2017,03,20,01,21,0.70
2017,03,20,01,22,0.70
2017,03,20,01,23,0.70
2017,03,20,01,24,0.80
2017,03,20,01,25,0.80
2017,03,20,01,26,0.80
2017,03,20,01,27,0.70
2017,03,20,01,28,0.70
2017,03,20,01,29,0.70
2017,03,20,01,30,0.60
2017,03,20,01,31,0.60
2017,03,20,01,32,0.60
2017,03,20,01,33,0.60
2017,03,20,01,34,0.60
2017,03,20,01,35,0.60
2017,03,20,01,36,0.50
2017,03,20,01,37,0.50
2017,03,20,01,38,0.40
2017,03,20,01,39,0.40
2017,03,20,01,40,0.40
2017,03,20,01,41,0.40
2017,03,20,01,42,0.40
2017,03,20,01,43,0.40
2017,03,20,01,44,0.40
2017,03,20,01,45,0.40
2017,03,20,01,46,0.40
2017,03,20,01,47,0.40
2017,03,20,01,48,0.40
2017,03,20,01,49,0.40
2017,03,20,01,50,0.40
2017,03,20,01,51,0.40
2017,03,20,01,52,0.40
2017,03,20,01,53,0.40
2017,03,20,01,54,0.40
2017,03,20,01,55,0.40
2017,03,20,01,56,0.40
2017,03,20,01,57,0.40
2017,03,20,01,58,0.40
2017,03,20,01,59,0.40
2017,03,20,02,00,0.30
2017,03,20,02,01,0.30
2017,03,20,02,02,0.30
2017,03,20,02,03,0.30
2017,03,20,02,04,0.30
2017,03,20,02,05,0.30
2017,03,20,02,06,0.30
2017,03,20,02,07,0.30
2017,03,20,02,08,0.30
2017,03,20,02,09,0.30
2017,03,20,02,10,0.30
2017,03,20,02,11,0.30
2017,03,20,02,12,0.30
2017,03,20,02,13,0.40
2017,03,20,02,14,0.30
2017,03,20,02,15,0.30
2017,03,20,02,16,0.30
2017,03,20,02,17,0.30
2017,03,20,02,18,0.30
2017,03,20,02,19,0.30
2017,03,20,02,20,0.30
2017,03,20,02,21,0.30
2017,03,20,02,22,0.30
2017,03,20,02,23,0.20
2017,03,20,02,24,0.20
2017,03,20,02,25,0.20
2017,03,20,02,26,0.30
2017,03,20,02,27,0.30
2017,03,20,02,28,0.30
2017,03,20,02,29,0.30
2017,03,20,02,30,0.30
2017,03,20,02,31,0.30
2017,03,20,02,32,0.30
2017,03,20,02,33,0.30
2017,03,20,02,34,0.30
2017,03,20,02,35,0.30
2017,03,20,02,36,0.30
2017,03,20,02,37,0.30
2017,03,20,02,38,0.40
2017,03,20,02,39,0.40
2017,03,20,02,40,0.40
2017,03,20,02,41,0.40
2017,03,20,02,42,0.40
2017,03,20,02,43,0.40
2017,03,20,02,44,0.40
2017,03,20,02,45,0.40
2017,03,20,02,46,0.40
2017,03,20,02,47,0.40
2017,03,20,02,48,0.40
2017,03,20,02,49,0.40
2017,03,20,02,50,0.40
2017,03,20,02,51,0.40
2017,03,20,02,52,0.40
2017,03,20,02,53,0.40
2017,03,20,02,54,0.50
2017,03,20,02,55,0.50
2017,03,20,02,56,0.50
2017,03,20,02,57,0.50
2017,03,20,02,58,0.50
2017,03,20,02,59,0.50
2017,03,20,03,00,0.40
2017,03,20,03,01,0.40
2017,03,20,03,02,0.40
2017,03,20,03,03,0.40
2017,03,20,03,04,0.40
2017,03,20,03,05,0.40
2017,03,20,03,06,0.40
2017,03,20,03,07,0.40
2017,03,20,03,08,0.40
2017,03,20,03,09,0.40
2017,03,20,03,10,0.30
2017,03,20,03,11,0.40
2017,03,20,03,12,0.30
2017,03,20,03,13,0.30
2017,03,20,03,14,0.30
2017,03,20,03,15,0.30
2017,03,20,03,16,0.40
2017,03,20,03,17,0.40
2017,03,20,03,18,0.50
2017,03,20,03,19,0.50
2017,03,20,03,20,0.50
2017,03,20,03,21,0.60
2017,03,20,03,22,0.60
2017,03,20,03,23,0.70
2017,03,20,03,24,0.80
2017,03,20,03,25,0.90
2017,03,20,03,26,0.90
2017,03,20,03,27,0.90
2017,03,20,03,28,0.90
2017,03,20,03,29,0.90
2017,03,20,03,30,0.90
2017,03,20,03,31,0.90
2017,03,20,03,32,0.80
2017,03,20,03,33,0.80
2017,03,20,03,34,0.80
2017,03,20,03,35,0.80
2017,03,20,03,36,0.80
2017,03,20,03,37,0.80
2017,03,20,03,38,0.80
2017,03,20,03,39,0.80
2017,03,20,03,40,0.80
2017,03,20,03,41,0.70
2017,03,20,03,42,0.70
2017,03,20,03,43,0.70
2017,03,20,03,44,0.70
2017,03,20,03,45,0.70
2017,03,20,03,46,0.70
2017,03,20,03,47,0.70
2017,03,20,03,48,0.70
2017,03,20,03,49,0.70
2017,03,20,03,50,0.70
2017,03,20,03,51,0.70
2017,03,20,03,52,0.70
2017,03,20,03,53,0.70
2017,03,20,03,54,0.70
2017,03,20,03,55,0.70
2017,03,20,03,56,0.70
2017,03,20,03,57,0.70
2017,03,20,03,58,0.70
2017,03,20,03,59,0.70
2017,03,20,04,00,0.70
2017,03,20,04,01,0.70
2017,03,20,04,02,0.70
2017,03,20,04,03,0.70
2017,03,20,04,04,0.60
2017,03,20,04,05,0.60
2017,03,20,04,06,0.60
2017,03,20,04,07,0.50
2017,03,20,04,08,0.50
2017,03,20,04,09,0.50
2017,03,20,04,10,0.50
2017,03,20,04,11,0.40
2017,03,20,04,12,0.40
2017,03,20,04,13,0.40
2017,03,20,04,14,0.40
2017,03,20,04,15,0.40
2017,03,20,04,16,0.40
2017,03,20,04,17,0.40
2017,03,20,04,18,0.40
2017,03,20,04,19,0.40
2017,03,20,04,20,0.40
2017,03,20,04,21,0.30
2017,03,20,04,22,0.40
2017,03,20,04,23,0.40
2017,03,20,04,24,0.30
2017,03,20,04,25,0.30
2017,03,20,04,26,0.30
2017,03,20,04,27,0.30
2017,03,20,04,28,0.30
2017,03,20,04,29,0.30
2017,03,20,04,30,0.30
2017,03,20,04,31,0.30
2017,03,20,04,32,0.30
2017,03,20,04,33,0.20
2017,03,20,04,34,0.20
2017,03,20,04,35,0.20
2017,03,20,04,36,0.20
2017,03,20,04,37,0.20
2017,03,20,04,38,0.20
2017,03,20,04,39,0.20
2017,03,20,04,40,0.20
2017,03,20,04,41,0.20
2017,03,20,04,42,0.20
2017,03,20,04,43,0.20
2017,03,20,04,44,0.20
2017,03,20,04,45,0.20
2017,03,20,04,46,0.20
2017,03,20,04,47,0.20
2017,03,20,04,48,0.20
2017,03,20,04,49,0.30
2017,03,20,04,50,0.30
2017,03,20,04,51,0.30
2017,03,20,04,52,0.30
2017,03,20,04,53,0.40
2017,03,20,04,54,0.50
2017,03,20,04,55,0.60
2017,03,20,04,56,0.60
2017,03,20,04,57,0.70
2017,03,20,04,58,0.70
2017,03,20,04,59,0.80
2017,03,20,05,00,0.90
2017,03,20,05,01,1.00
2017,03,20,05,02,1.10
2017,03,20,05,03,1.10
2017,03,20,05,04,1.20
2017,03,20,05,05,1.30
2017,03,20,05,06,1.40
2017,03,20,05,07,1.40
2017,03,20,05,08,1.50
2017,03,20,05,09,1.50
2017,03,20,05,10,1.60
2017,03,20,05,11,1.60
2017,03,20,05,12,1.60
2017,03,20,05,13,1.60
2017,03,20,05,14,1.60
2017,03,20,05,15,1.60
2017,03,20,05,16,1.60
2017,03,20,05,17,1.60
2017,03,20,05,18,1.60
2017,03,20,05,19,1.60
2017,03,20,05,20,1.70
2017,03,20,05,21,1.80
2017,03,20,05,22,1.90
2017,03,20,05,23,2.00
2017,03,20,05,24,2.10
2017,03,20,05,25,2.10
2017,03,20,05,26,2.20
2017,03,20,05,27,2.20
2017,03,20,05,28,2.20
2017,03,20,05,29,2.20
2017,03,20,05,30,2.20
2017,03,20,05,31,2.20
2017,03,20,05,32,2.20
2017,03,20,05,33,2.10
2017,03,20,05,34,2.10
2017,03,20,05,35,2.10
2017,03,20,05,36,2.20
2017,03,20,05,37,2.20
2017,03,20,05,38,2.20
2017,03,20,05,39,2.10
2017,03,20,05,40,2.10
2017,03,20,05,41,2.20
2017,03,20,05,42,2.20
2017,03,20,05,43,2.20
2017,03,20,05,44,2.20
2017,03,20,05,45,2.20
2017,03,20,05,46,2.20
2017,03,20,05,47,2.10
2017,03,20,05,48,2.00
2017,03,20,05,49,2.00
2017,03,20,05,50,1.90
2017,03,20,05,51,2.00
2017,03,20,05,52,2.00
2017,03,20,05,53,2.00
2017,03,20,05,54,2.00
2017,03,20,05,55,2.00
2017,03,20,05,56,2.10
2017,03,20,05,57,2.10
2017,03,20,05,58,2.20
2017,03,20,05,59,2.20
2017,03,20,06,00,2.20
2017,03,20,06,01,2.20
2017,03,20,06,02,2.20
2017,03,20,06,03,2.20
2017,03,20,06,04,2.20
2017,03,20,06,05,2.30
2017,03,20,06,06,2.30
2017,03,20,06,07,2.40
2017,03,20,06,08,2.40
2017,03,20,06,09,2.40
2017,03,20,06,10,2.40
2017,03,20,06,11,2.50
2017,03,20,06,12,2.50
2017,03,20,06,13,2.50
2017,03,20,06,14,2.50
2017,03,20,06,15,2.50
2017,03,20,06,16,2.50
2017,03,20,06,17,2.50
2017,03,20,06,18,2.50
2017,03,20,06,19,2.50
2017,03,20,06,20,2.40
2017,03,20,06,21,2.40
2017,03,20,06,22,2.30
2017,03,20,06,23,2.30
2017,03,20,06,24,2.30
2017,03,20,06,25,2.20
2017,03,20,06,26,2.20
2017,03,20,06,27,2.20
2017,03,20,06,28,2.20
2017,03,20,06,29,2.20
2017,03,20,06,30,2.20
2017,03,20,06,31,2.10
2017,03,20,06,32,2.10
2017,03,20,06,33,2.10
2017,03,20,06,34,2.10
2017,03,20,06,35,2.00
2017,03,20,06,36,2.00
2017,03,20,06,37,2.00
2017,03,20,06,38,2.00
2017,03,20,06,39,2.00
2017,03,20,06,40,2.10
2017,03,20,06,41,2.20
2017,03,20,06,42,2.20
2017,03,20,06,43,2.20
2017,03,20,06,44,2.20
2017,03,20,06,45,2.20
2017,03,20,06,46,2.20
2017,03,20,06,47,2.20
2017,03,20,06,48,2.10
2017,03,20,06,49,2.00
2017,03,20,06,50,2.00
2017,03,20,06,51,1.90
2017,03,20,06,52,2.00
2017,03,20,06,53,2.00
2017,03,20,06,54,2.10
2017,03,20,06,55,2.10
2017,03,20,06,56,2.20
2017,03,20,06,57,2.30
2017,03,20,06,58,2.30
2017,03,20,06,59,2.30
2017,03,20,07,00,2.30
2017,03,20,07,01,2.30
2017,03,20,07,02,2.30
2017,03,20,07,03,2.30
2017,03,20,07,04,2.30
2017,03,20,07,05,2.30
2017,03,20,07,06,2.30
2017,03,20,07,07,2.30
2017,03,20,07,08,2.40
2017,03,20,07,09,2.40
2017,03,20,07,10,2.50
2017,03,20,07,11,2.60
2017,03,20,07,12,2.60
2017,03,20,07,13,2.60
2017,03,20,07,14,2.60
2017,03,20,07,15,2.60
2017,03,20,07,16,2.70
2017,03,20,07,17,2.70
2017,03,20,07,18,2.70
2017,03,20,07,19,2.70
2017,03,20,07,20,2.70
2017,03,20,07,21,2.70
2017,03,20,07,22,2.70
2017,03,20,07,23,2.70
2017,03,20,07,24,2.70
2017,03,20,07,25,2.70
2017,03,20,07,26,2.70
2017,03,20,07,27,2.70
2017,03,20,07,28,2.70
2017,03,20,07,29,2.70
2017,03,20,07,30,2.80
2017,03,20,07,31,2.80
2017,03,20,07,32,2.80
2017,03,20,07,33,2.80
2017,03,20,07,34,2.80
2017,03,20,07,35,2.80
2017,03,20,07,36,2.80
2017,03,20,07,37,2.80
2017,03,20,07,38,2.80
2017,03,20,07,39,2.80
2017,03,20,07,40,2.80
2017,03,20,07,41,2.80
2017,03,20,07,42,2.80
2017,03,20,07,43,2.80
2017,03,20,07,44,2.90
2017,03,20,07,45,2.90
2017,03,20,07,46,2.90
2017,03,20,07,47,2.90
2017,03,20,07,48,3.00
2017,03,20,07,49,3.00
2017,03,20,07,50,3.00
2017,03,20,07,51,3.00
2017,03,20,07,52,3.10
2017,03,20,07,53,3.20
2017,03,20,07,54,3.20
2017,03,20,07,55,3.20
2017,03,20,07,56,3.20
2017,03,20,07,57,3.20
2017,03,20,07,58,3.20
2017,03,20,07,59,3.30
2017,03,20,08,00,3.40
2017,03,20,08,01,3.40
2017,03,20,08,02,3.40
2017,03,20,08,03,3.40
2017,03,20,08,04,3.30
2017,03,20,08,05,3.30
2017,03,20,08,06,3.30
2017,03,20,08,07,3.40
2017,03,20,08,08,3.40
2017,03,20,08,09,3.50
2017,03,20,08,10,3.60
2017,03,20,08,11,3.60
2017,03,20,08,12,3.70
2017,03,20,08,13,3.70
2017,03,20,08,14,3.60
2017,03,20,08,15,3.60
2017,03,20,08,16,3.60
2017,03,20,08,17,3.60
2017,03,20,08,18,3.70
2017,03,20,08,19,3.70
2017,03,20,08,20,3.70
2017,03,20,08,21,3.70
2017,03,20,08,22,3.70
2017,03,20,08,23,3.70
2017,03,20,08,24,3.70
2017,03,20,08,25,3.80
2017,03,20,08,26,3.80
2017,03,20,08,27,3.80
2017,03,20,08,28,3.80
2017,03,20,08,29,3.80
2017,03,20,08,30,3.80
2017,03,20,08,31,3.80
2017,03,20,08,32,3.80
2017,03,20,08,33,3.90
2017,03,20,08,34,3.90
2017,03,20,08,35,3.90
2017,03,20,08,36,3.90
2017,03,20,08,37,3.90
2017,03,20,08,38,3.90
2017,03,20,08,39,3.90
2017,03,20,08,40,3.90
2017,03,20,08,41,3.90
2017,03,20,08,42,3.90
2017,03,20,08,43,3.90
2017,03,20,08,44,4.00
2017,03,20,08,45,4.00
2017,03,20,08,46,4.00
2017,03,20,08,47,4.00
2017,03,20,08,48,4.00
2017,03,20,08,49,4.00
2017,03,20,08,50,4.00
2017,03,20,08,51,4.00
2017,03,20,08,52,4.10
2017,03,20,08,53,4.00
2017,03,20,08,54,4.00
2017,03,20,08,55,4.00
2017,03,20,08,56,4.10
2017,03,20,08,57,4.10
2017,03,20,08,58,4.10
2017,03,20,08,59,4.10
2017,03,20,09,00,4.10
2017,03,20,09,01,4.10
2017,03,20,09,02,4.10
2017,03,20,09,03,4.10
2017,03,20,09,04,4.10
2017,03,20,09,05,4.10
2017,03,20,09,06,4.10
2017,03,20,09,07,4.10
2017,03,20,09,08,4.10
2017,03,20,09,09,4.10
2017,03,20,09,10,4.10
2017,03,20,09,11,4.10
2017,03,20,09,12,4.20
2017,03,20,09,13,4.20
2017,03,20,09,14,4.20
2017,03,20,09,15,4.10
2017,03,20,09,16,4.20
2017,03,20,09,17,4.20
2017,03,20,09,18,4.20
2017,03,20,09,19,4.20
2017,03,20,09,20,4.20
2017,03,20,09,21,4.20
2017,03,20,09,22,4.20
2017,03,20,09,23,4.20
2017,03,20,09,24,4.20
2017,03,20,09,25,4.20
2017,03,20,09,26,4.20
2017,03,20,09,27,4.20
2017,03,20,09,28,4.20
2017,03,20,09,29,4.20
2017,03,20,09,30,4.20
2017,03,20,09,31,4.20
2017,03,20,09,32,4.30
2017,03,20,09,33,4.30
2017,03,20,09,34,4.30
2017,03,20,09,35,4.30
2017,03,20,09,36,4.30
2017,03,20,09,37,4.30
2017,03,20,09,38,4.30
2017,03,20,09,39,4.30
2017,03,20,09,40,4.40
2017,03,20,09,41,4.50
2017,03,20,09,42,4.50
2017,03,20,09,43,4.60
2017,03,20,09,44,4.60
2017,03,20,09,45,4.70
2017,03,20,09,46,4.70
2017,03,20,09,47,4.70
2017,03,20,09,48,4.70
2017,03,20,09,49,4.70
2017,03,20,09,50,4.70
2017,03,20,09,51,4.70
2017,03,20,09,52,4.70
2017,03,20,09,53,4.70
2017,03,20,09,54,4.80
2017,03,20,09,55,4.80
2017,03,20,09,56,4.80
2017,03,20,09,57,4.80
2017,03,20,09,58,4.90
2017,03,20,09,59,4.90
2017,03,20,10,00,4.90
2017,03,20,10,01,4.90
2017,03,20,10,02,5.00
2017,03,20,10,03,5.00
2017,03,20,10,04,5.00
2017,03,20,10,05,5.10
2017,03,20,10,06,5.10
2017,03,20,10,07,5.10
2017,03,20,10,08,5.20
2017,03,20,10,09,5.20
2017,03,20,10,10,5.30
2017,03,20,10,11,5.30
2017,03,20,10,12,5.30
2017,03,20,10,13,5.30
2017,03,20,10,14,5.30
2017,03,20,10,15,5.40
2017,03,20,10,16,5.40
2017,03,20,10,17,5.40
2017,03,20,10,18,5.50
2017,03,20,10,19,5.40
2017,03,20,10,20,5.40
2017,03,20,10,21,5.40
2017,03,20,10,22,5.50
2017,03,20,10,23,5.50
2017,03,20,10,24,5.40
2017,03,20,10,25,5.50
2017,03,20,10,26,5.50
2017,03,20,10,27,5.60
2017,03,20,10,28,5.60
2017,03,20,10,29,5.60
2017,03,20,10,30,5.60
2017,03,20,10,31,5.70
2017,03,20,10,32,5.70
2017,03,20,10,33,5.70
2017,03,20,10,34,5.70
2017,03,20,10,35,5.60
2017,03,20,10,36,5.60
2017,03,20,10,37,5.60
2017,03,20,10,38,5.60
2017,03,20,10,39,5.70
2017,03,20,10,40,5.70
2017,03,20,10,41,5.70
2017,03,20,10,42,5.80
2017,03,20,10,43,5.80
2017,03,20,10,44,5.80
2017,03,20,10,45,5.80
2017,03,20,10,46,5.80
2017,03,20,10,47,5.90
2017,03,20,10,48,6.00
2017,03,20,10,49,5.90
2017,03,20,10,50,5.80
2017,03,20,10,51,5.90
2017,03,20,10,52,5.90
2017,03,20,10,53,5.90
2017,03,20,10,54,6.00
2017,03,20,10,55,6.00
2017,03,20,10,56,6.10
2017,03,20,10,57,6.10
2017,03,20,10,58,6.20
2017,03,20,10,59,6.30
2017,03,20,11,00,6.20
2017,03,20,11,01,6.20
2017,03,20,11,02,6.20
2017,03,20,11,03,6.20
2017,03,20,11,04,6.20
2017,03,20,11,05,6.20
2017,03,20,11,06,6.20
2017,03,20,11,07,6.30
2017,03,20,11,08,6.30
2017,03,20,11,09,6.30
2017,03,20,11,10,6.30
2017,03,20,11,11,6.30
2017,03,20,11,12,6.30
2017,03,20,11,13,6.40
2017,03,20,11,14,6.40
2017,03,20,11,15,6.40
2017,03,20,11,16,6.40
2017,03,20,11,17,6.40
2017,03,20,11,18,6.40
2017,03,20,11,19,6.50
2017,03,20,11,20,6.50
2017,03,20,11,21,6.50
2017,03,20,11,22,6.50
2017,03,20,11,23,6.40
2017,03,20,11,24,6.50
2017,03,20,11,25,6.50
2017,03,20,11,26,6.50
2017,03,20,11,27,6.50
2017,03,20,11,28,6.50
2017,03,20,11,29,6.40
2017,03,20,11,30,6.30
2017,03,20,11,31,6.30
2017,03,20,11,32,6.30
2017,03,20,11,33,6.30
2017,03,20,11,34,6.40
2017,03,20,11,35,6.40
2017,03,20,11,36,6.40
2017,03,20,11,37,6.40
2017,03,20,11,38,6.50
2017,03,20,11,39,6.50
2017,03,20,11,40,6.60
2017,03,20,11,41,6.60
2017,03,20,11,42,6.60
2017,03,20,11,43,6.60
2017,03,20,11,44,6.60
2017,03,20,11,45,6.60
2017,03,20,11,46,6.70
2017,03,20,11,47,6.70
2017,03,20,11,48,6.80
2017,03,20,11,49,6.80
2017,03,20,11,50,6.90
2017,03,20,11,51,6.90
2017,03,20,11,52,6.90
2017,03,20,11,53,6.90
2017,03,20,11,54,7.00
2017,03,20,11,55,7.00
2017,03,20,11,56,7.00
2017,03,20,11,57,7.00
2017,03,20,11,58,7.00
2017,03,20,11,59,7.00
2017,03,20,12,00,7.10
2017,03,20,12,01,7.10
2017,03,20,12,02,7.10
2017,03,20,12,03,7.10
2017,03,20,12,04,7.10
2017,03,20,12,05,7.10
2017,03,20,12,06,7.10
2017,03,20,12,07,7.20
2017,03,20,12,08,7.20
2017,03,20,12,09,7.20
2017,03,20,12,10,7.20
2017,03,20,12,11,7.30
2017,03,20,12,12,7.30
2017,03,20,12,13,7.40
2017,03,20,12,14,7.50
2017,03,20,12,15,7.60
2017,03,20,12,16,7.70
2017,03,20,12,17,7.80
2017,03,20,12,18,7.90
2017,03,20,12,19,8.00
2017,03,20,12,20,8.10
2017,03,20,12,21,8.10
2017,03,20,12,22,8.20
2017,03,20,12,23,8.30
2017,03,20,12,24,8.30
2017,03,20,12,25,8.30
2017,03,20,12,26,8.40
2017,03,20,12,27,8.40
2017,03,20,12,28,8.30
2017,03,20,12,29,8.40
2017,03,20,12,30,8.40
2017,03,20,12,31,8.40
2017,03,20,12,32,8.40
2017,03,20,12,33,8.40
2017,03,20,12,34,8.50
2017,03,20,12,35,8.50
2017,03,20,12,36,8.60
2017,03,20,12,37,8.60
2017,03,20,12,38,8.70
2017,03,20,12,39,8.70
2017,03,20,12,40,8.80
2017,03,20,12,41,8.80
2017,03,20,12,42,8.90
2017,03,20,12,43,8.90
2017,03,20,12,44,9.00
2017,03,20,12,45,9.10
2017,03,20,12,46,9.20
2017,03,20,12,47,9.20
2017,03,20,12,48,9.30
2017,03,20,12,49,9.30
2017,03,20,12,50,9.40
2017,03,20,12,51,9.40
2017,03,20,12,52,9.40
2017,03,20,12,53,9.40
2017,03,20,12,54,9.40
2017,03,20,12,55,9.40
2017,03,20,12,56,9.40
2017,03,20,12,57,9.30
2017,03,20,12,58,9.30
2017,03,20,12,59,9.30
2017,03,20,13,00,9.30
2017,03,20,13,01,9.30
2017,03,20,13,02,9.40
2017,03,20,13,03,9.50
2017,03,20,13,04,9.50
2017,03,20,13,05,9.60
2017,03,20,13,06,9.60
2017,03,20,13,07,9.70
2017,03,20,13,08,9.70
2017,03,20,13,09,9.70
2017,03,20,13,10,9.70
2017,03,20,13,11,9.70
2017,03,20,13,12,9.80
2017,03,20,13,13,9.80
2017,03,20,13,14,9.90
2017,03,20,13,15,9.90
2017,03,20,13,16,10.00
2017,03,20,13,17,10.10
2017,03,20,13,18,10.10
2017,03,20,13,19,10.20
2017,03,20,13,20,10.30
2017,03,20,13,21,10.30
2017,03,20,13,22,10.30
2017,03,20,13,23,10.40
2017,03,20,13,24,10.40
2017,03,20,13,25,10.40
2017,03,20,13,26,10.50
2017,03,20,13,27,10.50
2017,03,20,13,28,10.50
2017,03,20,13,29,10.50
2017,03,20,13,30,10.60
2017,03,20,13,31,10.60
2017,03,20,13,32,10.70
2017,03,20,13,33,10.80
2017,03,20,13,34,10.80
2017,03,20,13,35,10.80
2017,03,20,13,36,10.90
2017,03,20,13,37,10.90
2017,03,20,13,38,10.90
2017,03,20,13,39,11.00
2017,03,20,13,40,11.00
2017,03,20,13,41,11.00
2017,03,20,13,42,11.10
2017,03,20,13,43,11.10
2017,03,20,13,44,11.20
2017,03,20,13,45,11.30
2017,03,20,13,46,11.30
2017,03,20,13,47,11.30
2017,03,20,13,48,11.40
2017,03,20,13,49,11.50
2017,03,20,13,50,11.50
2017,03,20,13,51,11.50
2017,03,20,13,52,11.50
2017,03,20,13,53,11.40
2017,03,20,13,54,11.40
2017,03,20,13,55,11.40
2017,03,20,13,56,11.40
2017,03,20,13,57,11.50
2017,03,20,13,58,11.60
2017,03,20,13,59,11.60
2017,03,20,14,00,11.70
2017,03,20,14,01,11.70
2017,03,20,14,02,11.80
2017,03,20,14,03,11.80
2017,03,20,14,04,11.80
2017,03,20,14,05,11.90
2017,03,20,14,06,11.90
2017,03,20,14,07,12.00
2017,03,20,14,08,12.10
2017,03,20,14,09,12.10
2017,03,20,14,10,12.10
2017,03,20,14,11,12.10
2017,03,20,14,12,12.10
2017,03,20,14,13,12.10
2017,03,20,14,14,12.10
2017,03,20,14,15,12.10
2017,03,20,14,16,12.10
2017,03,20,14,17,12.20
2017,03,20,14,18,12.20
2017,03,20,14,19,12.30
2017,03,20,14,20,12.30
2017,03,20,14,21,12.30
2017,03,20,14,22,12.30
2017,03,20,14,23,12.30
2017,03,20,14,24,12.40
2017,03,20,14,25,12.40
2017,03,20,14,26,12.40
2017,03,20,14,27,12.40
2017,03,20,14,28,12.40
2017,03,20,14,29,12.40
2017,03,20,14,30,12.40
2017,03,20,14,31,12.50
2017,03,20,14,32,12.60
2017,03,20,14,33,12.60
2017,03,20,14,34,12.60
2017,03,20,14,35,12.70
2017,03,20,14,36,12.70
2017,03,20,14,37,12.70
2017,03,20,14,38,12.70
2017,03,20,14,39,12.80
2017,03,20,14,40,12.80
2017,03,20,14,41,12.80
2017,03,20,14,42,12.80
2017,03,20,14,43,12.80
2017,03,20,14,44,12.80
2017,03,20,14,45,12.80
2017,03,20,14,46,12.80
2017,03,20,14,47,12.90
2017,03,20,14,48,12.90
2017,03,20,14,49,12.90
2017,03,20,14,50,12.90
2017,03,20,14,51,12.90
2017,03,20,14,52,13.00
2017,03,20,14,53,13.00
2017,03,20,14,54,13.00
2017,03,20,14,55,13.10
2017,03,20,14,56,13.10
2017,03,20,14,57,13.10
2017,03,20,14,58,13.00
2017,03,20,14,59,12.90
2017,03,20,15,00,12.90
2017,03,20,15,01,12.90
2017,03,20,15,02,13.00
2017,03,20,15,03,13.00
2017,03,20,15,04,13.10
2017,03,20,15,05,13.10
2017,03,20,15,06,13.20
2017,03,20,15,07,13.20
2017,03,20,15,08,13.20
2017,03,20,15,09,13.30
2017,03,20,15,10,13.40
2017,03,20,15,11,13.40
2017,03,20,15,12,13.30
2017,03,20,15,13,13.30
2017,03,20,15,14,13.40
2017,03,20,15,15,13.40
2017,03,20,15,16,13.40
2017,03,20,15,17,13.50
2017,03,20,15,18,13.50
2017,03,20,15,19,13.60
2017,03,20,15,20,13.70
2017,03,20,15,21,13.70
2017,03,20,15,22,13.70
2017,03,20,15,23,13.70
2017,03,20,15,24,13.70
2017,03,20,15,25,13.70
2017,03,20,15,26,13.60
2017,03,20,15,27,13.60
2017,03,20,15,28,13.60
2017,03,20,15,29,13.60
2017,03,20,15,30,13.60
2017,03,20,15,31,13.60
2017,03,20,15,32,13.60
2017,03,20,15,33,13.60
2017,03,20,15,34,13.60
2017,03,20,15,35,13.60
2017,03,20,15,36,13.70
2017,03,20,15,37,13.70
2017,03,20,15,38,13.80
2017,03,20,15,39,13.80
2017,03,20,15,40,13.80
2017,03,20,15,41,13.80
2017,03,20,15,42,13.80
2017,03,20,15,43,13.70
2017,03,20,15,44,13.70
2017,03,20,15,45,13.70
2017,03,20,15,46,13.70
2017,03,20,15,47,13.80
2017,03,20,15,48,13.80
2017,03,20,15,49,13.80
2017,03,20,15,50,13.80
2017,03,20,15,51,13.80
2017,03,20,15,52,13.80
2017,03,20,15,53,13.80
2017,03,20,15,54,13.90
2017,03,20,15,55,13.90
2017,03,20,15,56,13.90
2017,03,20,15,57,13.90
2017,03,20,15,58,14.00
2017,03,20,15,59,14.00
2017,03,20,16,00,14.00
2017,03,20,16,01,14.10
2017,03,20,16,02,14.10
2017,03,20,16,03,14.10
2017,03,20,16,04,14.10
2017,03,20,16,05,14.10
2017,03,20,16,06,14.10
2017,03,20,16,07,14.10
2017,03,20,16,08,14.10
2017,03,20,16,09,14.10
2017,03,20,16,10,14.10
2017,03,20,16,11,14.10
2017,03,20,16,12,14.10
2017,03,20,16,13,14.20
2017,03,20,16,14,14.20
2017,03,20,16,15,14.20
2017,03,20,16,16,14.20
2017,03,20,16,17,14.20
2017,03,20,16,18,14.10
2017,03,20,16,19,14.10
2017,03,20,16,20,14.10
2017,03,20,16,21,14.10
2017,03,20,16,22,14.10
2017,03,20,16,23,14.00
2017,03,20,16,24,14.00
2017,03,20,16,25,14.00
2017,03,20,16,26,14.00
2017,03,20,16,27,14.00
2017,03,20,16,28,13.90
2017,03,20,16,29,13.90
2017,03,20,16,30,13.90
2017,03,20,16,31,13.90
2017,03,20,16,32,13.90
2017,03,20,16,33,13.90
2017,03,20,16,34,13.80
2017,03,20,16,35,13.80
2017,03,20,16,36,13.80
2017,03,20,16,37,13.80
2017,03,20,16,38,13.80
2017,03,20,16,39,13.70
2017,03,20,16,40,13.70
2017,03,20,16,41,13.70
2017,03,20,16,42,13.70
2017,03,20,16,43,13.70
2017,03,20,16,44,13.70
2017,03,20,16,45,13.70
2017,03,20,16,46,13.70
2017,03,20,16,47,13.70
2017,03,20,16,48,13.70
2017,03,20,16,49,13.70
2017,03,20,16,50,13.60
2017,03,20,16,51,13.60
2017,03,20,16,52,13.60
2017,03,20,16,53,13.50
2017,03,20,16,54,13.50
2017,03,20,16,55,13.40
2017,03,20,16,56,13.40
2017,03,20,16,57,13.30
2017,03,20,16,58,13.30
2017,03,20,16,59,13.30
2017,03,20,17,00,13.30
2017,03,20,17,01,13.20
2017,03,20,17,02,13.30
2017,03,20,17,03,13.30
2017,03,20,17,04,13.30
2017,03,20,17,05,13.20
2017,03,20,17,06,13.20
2017,03,20,17,07,13.20
2017,03,20,17,08,13.10
2017,03,20,17,09,13.00
2017,03,20,17,10,12.90
2017,03,20,17,11,12.80
2017,03,20,17,12,12.70
2017,03,20,17,13,12.70
2017,03,20,17,14,12.60
2017,03,20,17,15,12.60
2017,03,20,17,16,12.60
2017,03,20,17,17,12.50
2017,03,20,17,18,12.50
2017,03,20,17,19,12.40
2017,03,20,17,20,12.40
2017,03,20,17,21,12.40
2017,03,20,17,22,12.40
2017,03,20,17,23,12.40
2017,03,20,17,24,12.30
2017,03,20,17,25,12.30
2017,03,20,17,26,12.30
2017,03,20,17,27,12.30
2017,03,20,17,28,12.20
2017,03,20,17,29,12.20
2017,03,20,17,30,12.10
2017,03,20,17,31,12.00
2017,03,20,17,32,11.90
2017,03,20,17,33,11.90
2017,03,20,17,34,11.80
2017,03,20,17,35,11.60
2017,03,20,17,36,11.60
2017,03,20,17,37,11.50
2017,03,20,17,38,11.50
2017,03,20,17,39,11.50
2017,03,20,17,40,11.50
2017,03,20,17,41,11.50
2017,03,20,17,42,11.50
2017,03,20,17,43,11.40
2017,03,20,17,44,11.30
2017,03,20,17,45,11.30
2017,03,20,17,46,11.30
2017,03,20,17,47,11.30
2017,03,20,17,48,11.20
2017,03,20,17,49,11.20
2017,03,20,17,50,11.10
2017,03,20,17,51,11.10
2017,03,20,17,52,11.00
2017,03,20,17,53,11.00
2017,03,20,17,54,11.00